TimeEDT,TemperatureF,Dew PointF,Humidity,Sea Level PressureIn,VisibilityMPH,Wind Direction,Wind SpeedMPH,Gust SpeedMPH,PrecipitationIn,Events,Conditions,WindDirDegrees,DateUTC
12:53 AM,82.9,73.9,74,30.01,10.0,SE,11.5,-,N/A,,Partly Cloudy,130,2013-08-24 04:53:00
1:53 AM,82.9,75.0,77,30.01,10.0,SE,10.4,-,N/A,,Partly Cloudy,130,2013-08-24 05:53:00
2:53 AM,82.9,75.0,77,30.00,10.0,SE,6.9,-,N/A,,Partly Cloudy,130,2013-08-24 06:53:00
3:53 AM,82.0,75.0,79,29.99,10.0,SSE,5.8,-,N/A,,Partly Cloudy,160,2013-08-24 07:53:00
4:53 AM,82.0,75.0,79,29.97,10.0,ESE,5.8,-,N/A,,Partly Cloudy,120,2013-08-24 08:53:00
5:53 AM,82.0,75.0,79,29.99,10.0,ESE,5.8,-,N/A,,Partly Cloudy,110,2013-08-24 09:53:00
6:53 AM,82.0,75.0,79,30.01,10.0,Calm,Calm,-,N/A,,Scattered Clouds,0,2013-08-24 10:53:00
7:53 AM,82.9,75.0,77,30.04,10.0,SSE,4.6,-,N/A,,Mostly Cloudy,160,2013-08-24 11:53:00
8:53 AM,84.9,75.0,72,30.05,10.0,SE,10.4,-,N/A,,Mostly Cloudy,140,2013-08-24 12:53:00
9:53 AM,86.0,73.9,67,30.06,10.0,SE,10.4,-,N/A,,Scattered Clouds,140,2013-08-24 13:53:00
10:53 AM,88.0,73.9,63,30.08,10.0,ESE,9.2,-,N/A,,Scattered Clouds,120,2013-08-24 14:53:00
11:53 AM,88.0,73.9,63,30.07,10.0,SE,9.2,-,N/A,,Scattered Clouds,140,2013-08-24 15:53:00
12:53 PM,89.1,75.0,63,30.06,10.0,East,10.4,-,N/A,,Scattered Clouds,100,2013-08-24 16:53:00
1:53 PM,88.0,73.9,63,30.06,10.0,SE,9.2,17.3,N/A,,Partly Cloudy,130,2013-08-24 17:53:00
2:53 PM,89.1,75.0,63,30.04,10.0,East,11.5,19.6,N/A,,Partly Cloudy,100,2013-08-24 18:53:00
3:53 PM,88.0,75.0,65,30.03,10.0,ESE,13.8,20.7,N/A,,Scattered Clouds,120,2013-08-24 19:53:00
4:53 PM,86.0,73.9,67,30.02,10.0,East,12.7,-,N/A,,Scattered Clouds,100,2013-08-24 20:53:00
5:53 PM,84.9,73.9,69,30.03,10.0,East,10.4,-,N/A,,Scattered Clouds,100,2013-08-24 21:53:00
6:53 PM,84.0,75.0,74,30.04,10.0,ESE,11.5,-,N/A,,Scattered Clouds,120,2013-08-24 22:53:00
7:20 PM,84.2,75.2,74,30.04,10.0,SE,10.4,-,N/A,,Mostly Cloudy,130,2013-08-24 23:20:00
7:36 PM,84.2,75.2,74,30.05,10.0,ESE,10.4,-,N/A,,Mostly Cloudy,120,2013-08-24 23:36:00
7:53 PM,84.9,75.0,72,30.06,10.0,ESE,11.5,-,N/A,,Mostly Cloudy,110,2013-08-24 23:53:00
8:53 PM,84.0,73.9,72,30.07,10.0,SE,10.4,-,N/A,,Scattered Clouds,130,2013-08-25 00:53:00
9:53 PM,82.9,72.0,69,30.09,10.0,East,5.8,-,0.00,,Scattered Clouds,100,2013-08-25 01:53:00
10:53 PM,82.9,73.9,74,30.11,10.0,East,5.8,-,N/A,,Scattered Clouds,100,2013-08-25 02:53:00
11:53 PM,82.0,73.9,76,30.09,10.0,Calm,Calm,-,N/A,,Partly Cloudy,0,2013-08-25 03:53:00